Weather History for Monroe, LA

Change the Weather History Date:

Wednesday, October 16, 2013

  Actual Average Record
Temperature  
Mean Temperature 64 °F 66 °F  
Max Temperature 68 °F 79 °F 92 °F (1935)
Min Temperature 60 °F 53 °F 34 °F (1961)
Degree Days  
Heating Degree Days 1 3  
Month to date heating degree days 2 25  
Since 1 July heating degree days 2 31  
Cooling Degree Days 0 4  
Month to date cooling degree days 111 82  
Year to date cooling degree days 2409 2446  
Growing Degree Days 14 (Base 50)    
Moisture  
Dew Point 63 °F    
Average Humidity 90    
Maximum Humidity 93    
Minimum Humidity 87    
Precipitation  
Precipitation 0.41 in 0.16 in 5.86 in (2006)
Month to date precipitation 2.86 2.35  
Year to date precipitation 37.45 41.46  
Snow  
Snow 0.00 in - - ()
Month to date snowfall 0.0  
Since 1 July snowfall 0.0  
Since 1 September snowfall 0.0  
Snow Depth 0.00 in    
Sea Level Pressure  
Sea Level Pressure 29.98 in    
Wind  
Wind Speed 6 mph (NNE)    
Max Wind Speed 17 mph    
Max Gust Speed 20 mph    
Visibility 6 miles    
Events Rain    
T = Trace of Precipitation, MM = Missing Value Source: NWS Daily Summary

Daily Weather History Graph

Daily Weather History Graph

Search for Another Location

Airport:

Trip Planner

Search our weather history database for the weather conditions in past years. The results will help you decide how hot, cold, wet, or windy it might be!

Date:

Astronomy

Oct. 16, 2013 Rise Set
Actual Time 7:12 AM CDT 6:33 PM CDT
Civil Twilight 6:48 AM CDT 6:58 PM CDT
Nautical Twilight 6:19 AM CDT 7:27 PM CDT
Astronomical Twilight 5:51 AM CDT 7:55 PM CDT
Moon 5:08 PM CDT (10/16) 4:48 AM CDT (10/16)
Length of Visible Light 12h 10m
Length of Day
11h 20m
Waxing Gibbous, 94% of the Moon is Illuminated
Oct 16
Waxing Gibbous
Oct 18
Full
Oct 26
Last Quarter
Nov 3
New
Nov 9
First Quarter

Hourly Weather History & Observations

Time (CDT) Temp. Dew Point Humidity Pressure Visibility Wind Dir Wind Speed Gust Speed Precip Events Conditions
12:01 AM 68.0 °F 64.4 °F 88% 29.95 in 10.0 mi NNW 3.5 mph - N/A   Overcast
12:18 AM 68.0 °F 64.4 °F 88% 29.95 in 10.0 mi North 3.5 mph - N/A   Overcast
12:53 AM 66.9 °F 64.9 °F 93% 29.94 in 10.0 mi Calm Calm - N/A   Overcast
1:53 AM 68.0 °F 64.9 °F 90% 29.94 in 10.0 mi NNW 3.5 mph - N/A   Overcast
2:53 AM 68.0 °F 64.9 °F 90% 29.94 in 10.0 mi NNW 4.6 mph - 0.00 in Rain Light Rain
3:53 AM 66.9 °F 64.9 °F 93% 29.93 in 10.0 mi NNW 10.4 mph - 0.06 in Rain Light Rain
4:17 AM 66.2 °F 64.4 °F 94% 29.94 in 5.0 mi North 6.9 mph - 0.05 in Rain Light Rain
4:49 AM 66.2 °F 64.4 °F 94% 29.95 in 9.0 mi North 4.6 mph - 0.06 in Rain Light Rain
4:53 AM 66.0 °F 64.0 °F 93% 29.95 in 9.0 mi North 5.8 mph - 0.06 in Rain Light Rain
5:53 AM 66.0 °F 64.0 °F 93% 29.95 in 6.0 mi NNE 4.6 mph - 0.02 in Rain Light Rain
6:24 AM 66.2 °F 64.4 °F 94% 29.95 in 4.0 mi NE 4.6 mph - 0.02 in Rain Light Rain
6:32 AM 66.2 °F 64.4 °F 94% 29.96 in 5.0 mi NE 8.1 mph - 0.03 in Rain Light Rain
6:49 AM 66.2 °F 64.4 °F 94% 29.96 in 4.0 mi NNE 5.8 mph - 0.05 in Rain Light Rain
6:53 AM 66.0 °F 64.0 °F 93% 29.96 in 4.0 mi NNE 8.1 mph - 0.06 in Rain Light Rain
7:46 AM 66.2 °F 64.4 °F 94% 29.99 in 2.0 mi Calm Calm - 0.04 in Rain Rain
7:53 AM 66.0 °F 64.0 °F 93% 29.99 in 2.5 mi NNW 3.5 mph - 0.07 in Rain Heavy Rain
8:01 AM 66.2 °F 64.4 °F 94% 29.99 in 3.0 mi Calm Calm - 0.01 in Rain Light Rain
8:12 AM 66.2 °F 64.4 °F 94% 29.99 in 2.5 mi NNE 4.6 mph - 0.02 in Rain Light Rain
8:24 AM 66.2 °F 64.4 °F 94% 29.99 in 2.0 mi ENE 4.6 mph - 0.04 in Rain Rain
8:33 AM 66.2 °F 64.4 °F 94% 29.99 in 3.0 mi NE 5.8 mph - 0.05 in Rain Light Rain
8:53 AM 66.0 °F 64.0 °F 93% 30.00 in 3.0 mi NNW 5.8 mph - 0.05 in Rain Light Rain
9:00 AM 66.2 °F 64.4 °F 94% 29.99 in 4.0 mi NNE 5.8 mph - 0.01 in Rain Light Rain
9:09 AM 66.2 °F 64.4 °F 94% 29.99 in 2.0 mi NNE 6.9 mph - 0.01 in Rain Light Rain
9:14 AM 66.2 °F 64.4 °F 94% 29.99 in 4.0 mi NE 6.9 mph - 0.02 in Rain Light Rain
9:31 AM 66.2 °F 64.4 °F 94% 30.01 in 10.0 mi NNW 5.8 mph - 0.02 in   Overcast
9:53 AM 66.0 °F 64.9 °F 96% 30.01 in 2.5 mi North 5.8 mph - 0.03 in Rain Light Rain
10:16 AM 66.2 °F 64.4 °F 94% 30.01 in 1.8 mi North 4.6 mph - 0.02 in Rain Light Rain
10:24 AM 66.2 °F 64.4 °F 94% 30.01 in 2.0 mi North 4.6 mph - 0.02 in Rain Light Rain
10:53 AM 66.9 °F 64.9 °F 93% 30.01 in 2.5 mi NNE 4.6 mph - 0.03 in Rain Light Rain
11:13 AM 66.2 °F 64.4 °F 94% 29.99 in 7.0 mi East 4.6 mph - 0.01 in Rain Light Rain
11:24 AM 66.2 °F 64.4 °F 94% 29.99 in 10.0 mi East 4.6 mph - 0.01 in   Overcast
11:53 AM 68.0 °F 66.0 °F 93% 30.01 in 10.0 mi North 6.9 mph - 0.01 in   Overcast
12:53 PM 63.0 °F 61.0 °F 93% 29.99 in 6.0 mi North 10.4 mph - N/A   Overcast
1:11 PM 62.6 °F 60.8 °F 94% 29.98 in 1.8 mi NNE 10.4 mph - 0.00 in Rain Light Rain
1:27 PM 60.8 °F 59.0 °F 94% 29.99 in 2.0 mi North 15.0 mph 19.6 mph 0.01 in Rain Light Rain
1:35 PM 60.8 °F 59.0 °F 94% 29.98 in 1.8 mi NNE 10.4 mph 19.6 mph 0.01 in Rain Light Rain
1:53 PM 61.0 °F 59.0 °F 93% 29.99 in 3.0 mi North 9.2 mph - 0.01 in Rain Light Rain
2:53 PM 61.0 °F 57.9 °F 90% 29.98 in 10.0 mi North 9.2 mph - 0.00 in   Overcast
3:53 PM 61.0 °F 59.0 °F 93% 29.98 in 10.0 mi NNE 6.9 mph - 0.01 in Rain Light Rain
4:53 PM 62.1 °F 59.0 °F 90% 29.97 in 10.0 mi North 4.6 mph - N/A   Overcast
5:53 PM 62.1 °F 59.0 °F 90% 29.98 in 10.0 mi North 6.9 mph - 0.00 in   Overcast
6:53 PM 62.1 °F 59.0 °F 90% 29.99 in 10.0 mi NNE 5.8 mph - N/A   Overcast
7:19 PM 62.6 °F 59.0 °F 88% 29.99 in 10.0 mi North 5.8 mph - N/A   Overcast
7:53 PM 62.1 °F 59.0 °F 90% 30.00 in 10.0 mi North 3.5 mph - N/A   Overcast
8:53 PM 62.1 °F 59.0 °F 90% 30.01 in 10.0 mi North 5.8 mph - N/A   Overcast
9:53 PM 62.1 °F 59.0 °F 90% 30.01 in 10.0 mi North 3.5 mph - N/A   Overcast
10:53 PM 62.1 °F 59.0 °F 90% 30.01 in 10.0 mi North 3.5 mph - N/A   Overcast
11:53 PM 62.1 °F 59.0 °F 90% 30.01 in 10.0 mi North 3.5 mph - 0.00 in   Overcast